STARLINK-36785

Last updated on Sun Mar 22 2026 00:02:05 GMT+0000 (Coordinated Universal Time)

1 67853U 26034D 26080.48819161 .00270070 00000+0 13257-2 0 9993 2 67853 53.1581 152.2019 0000618 48.4129 311.6946 15.80934466 5806
UTC large
Height (km)
Speed (km/s)
/
Latitude / Longitude
Inclination (degrees)
Orbital Period (minutes)
Azimuth
Elevation
Range (km)
Doppler Factor

Next 0 passes for location: London (51.5072 / 0.1276)

Sorry there are no passes over London.